Time,TemperatureF,DewpointF,PressureIn,WindDirection,WindDirectionDegrees,WindSpeedMPH,WindSpeedGustMPH,Humidity,HourlyPrecipIn,Conditions,Clouds,dailyrainin,SoftwareType,DateUTC
2013-08-16 00:01:00,60.1,51.8,30.39,South,190,3.5,0.0,74,0.00,SCT,,0.00,WeatherDisplay:10.37,2013-08-16 04:01:00,
2013-08-16 00:06:00,60.1,51.8,30.51,South,190,3.5,3.5,74,0.00,SCT,,0.00,WeatherDisplay:10.37,2013-08-16 04:06:00,
2013-08-16 00:11:00,59.7,51.4,30.51,South,190,3.5,3.5,74,0.00,SCT,,0.00,WeatherDisplay:10.37,2013-08-16 04:11:00,
2013-08-16 00:16:00,59.7,51.4,30.51,South,190,3.5,3.5,74,0.00,SCT,,0.00,WeatherDisplay:10.37,2013-08-16 04:16:00,
2013-08-16 00:21:00,59.9,51.6,30.39,South,190,3.5,3.5,74,0.00,SCT,,0.00,WeatherDisplay:10.37,2013-08-16 04:21:00,
2013-08-16 00:26:00,59.9,51.6,30.39,South,190,3.5,3.5,74,0.00,SCT,,0.00,WeatherDisplay:10.37,2013-08-16 04:26:00,
2013-08-16 00:31:00,59.7,51.4,30.39,South,190,3.5,3.5,74,0.00,SCT,,0.00,WeatherDisplay:10.37,2013-08-16 04:31:00,
2013-08-16 00:36:00,59.5,51.2,30.36,South,190,3.5,3.5,74,0.00,SCT,,0.00,WeatherDisplay:10.37,2013-08-16 04:36:00,
2013-08-16 00:41:00,59.5,51.2,30.36,South,190,3.5,3.5,74,0.00,SCT,,0.00,WeatherDisplay:10.37,2013-08-16 04:41:00,
2013-08-16 00:46:00,59.5,51.2,30.36,South,190,3.5,3.5,74,0.00,SCT,,0.00,WeatherDisplay:10.37,2013-08-16 04:46:00,
2013-08-16 00:51:00,59.4,51.1,30.33,South,190,3.5,3.5,74,0.00,SCT,,0.00,WeatherDisplay:10.37,2013-08-16 04:51:00,
2013-08-16 00:56:00,59.4,51.1,30.33,South,190,3.5,3.5,74,0.00,SCT,,0.00,WeatherDisplay:10.37,2013-08-16 04:56:00,
2013-08-16 01:01:00,59.5,51.2,30.33,South,190,3.5,3.5,74,0.00,SCT,,0.00,WeatherDisplay:10.37,2013-08-16 05:01:00,
2013-08-16 01:06:00,59.5,51.2,30.30,South,190,3.5,3.5,74,0.00,SCT,,0.00,WeatherDisplay:10.37,2013-08-16 05:06:00,
2013-08-16 01:11:00,59.2,50.9,30.30,South,190,3.5,3.5,74,0.00,SCT,,0.00,WeatherDisplay:10.37,2013-08-16 05:11:00,
2013-08-16 01:19:00,59.2,53.0,30.30,South,190,0.0,0.0,80,0.00,BKN,,0.00,WeatherDisplay:10.37,2013-08-16 05:19:00,
2013-08-16 01:24:00,59.0,52.8,30.30,South,190,0.0,0.0,80,0.00,BKN,,0.00,WeatherDisplay:10.37,2013-08-16 05:24:00,
2013-08-16 01:29:00,59.0,52.8,30.30,South,190,0.0,0.0,80,0.00,BKN,,0.00,WeatherDisplay:10.37,2013-08-16 05:29:00,
2013-08-16 01:34:00,59.0,52.8,30.27,South,190,0.0,0.0,80,0.00,BKN,,0.00,WeatherDisplay:10.37,2013-08-16 05:34:00,
2013-08-16 01:39:00,58.8,52.7,30.27,South,190,0.0,0.0,80,0.00,BKN,,0.00,WeatherDisplay:10.37,2013-08-16 05:39:00,
2013-08-16 01:44:00,59.0,52.8,30.27,South,190,0.0,0.0,80,0.00,BKN,,0.00,WeatherDisplay:10.37,2013-08-16 05:44:00,
2013-08-16 01:49:00,58.6,52.5,30.42,South,190,0.0,0.0,80,0.00,BKN,,0.00,WeatherDisplay:10.37,2013-08-16 05:49:00,
2013-08-16 01:54:00,58.8,52.7,30.42,South,190,0.0,0.0,80,0.00,BKN,,0.00,WeatherDisplay:10.37,2013-08-16 05:54:00,
2013-08-16 01:59:00,58.5,52.3,30.42,South,190,0.0,0.0,80,0.00,BKN,,0.00,WeatherDisplay:10.37,2013-08-16 05:59:00,
2013-08-16 02:04:00,58.5,52.3,30.39,South,190,0.0,0.0,80,0.00,BKN,,0.00,WeatherDisplay:10.37,2013-08-16 06:04:00,
2013-08-16 02:09:00,58.5,52.3,30.39,South,190,0.0,0.0,80,0.00,BKN,,0.00,WeatherDisplay:10.37,2013-08-16 06:09:00,
2013-08-16 02:14:00,58.6,52.5,30.39,South,190,0.0,0.0,80,0.00,BKN,,0.00,WeatherDisplay:10.37,2013-08-16 06:14:00,
2013-08-16 02:19:00,58.3,54.1,30.36,South,180,3.5,3.5,86,0.00,SCT,,0.00,WeatherDisplay:10.37,2013-08-16 06:19:00,
2013-08-16 02:24:00,58.3,54.1,30.36,South,180,3.5,3.5,86,0.00,SCT,,0.00,WeatherDisplay:10.37,2013-08-16 06:24:00,
2013-08-16 02:29:00,58.5,54.3,30.36,South,180,3.5,3.5,86,0.00,SCT,,0.00,WeatherDisplay:10.37,2013-08-16 06:29:00,
2013-08-16 02:34:00,58.1,53.9,30.36,South,180,3.5,3.5,86,0.00,SCT,,0.00,WeatherDisplay:10.37,2013-08-16 06:34:00,
2013-08-16 02:39:00,57.9,53.8,30.36,South,180,3.5,3.5,86,0.00,SCT,,0.00,WeatherDisplay:10.37,2013-08-16 06:39:00,
2013-08-16 02:44:00,58.1,53.9,30.36,South,180,3.5,3.5,86,0.00,SCT,,0.00,WeatherDisplay:10.37,2013-08-16 06:44:00,
2013-08-16 02:49:00,58.3,54.1,30.36,South,180,3.5,3.5,86,0.00,SCT,,0.00,WeatherDisplay:10.37,2013-08-16 06:49:00,
2013-08-16 02:54:00,57.7,53.6,30.36,South,180,3.5,3.5,86,0.00,SCT,,0.00,WeatherDisplay:10.37,2013-08-16 06:54:00,
2013-08-16 02:59:00,57.7,53.6,30.36,South,180,3.5,3.5,86,0.00,SCT,,0.00,WeatherDisplay:10.37,2013-08-16 06:59:00,
2013-08-16 03:04:00,57.6,53.4,30.36,SSW,200,3.5,3.5,86,0.00,SCT,,0.00,WeatherDisplay:10.37,2013-08-16 07:04:00,
2013-08-16 03:09:00,57.7,53.6,30.36,SSW,200,3.5,3.5,86,0.00,SCT,,0.00,WeatherDisplay:10.37,2013-08-16 07:09:00,
2013-08-16 03:14:00,57.6,53.4,30.36,SSW,200,3.5,3.5,86,0.00,SCT,,0.00,WeatherDisplay:10.37,2013-08-16 07:14:00,
2013-08-16 03:19:00,57.2,53.0,30.36,SSW,200,3.5,3.5,86,0.00,SCT,,0.00,WeatherDisplay:10.37,2013-08-16 07:19:00,
2013-08-16 03:24:00,57.2,53.0,30.36,SSW,200,3.5,3.5,86,0.00,SCT,,0.00,WeatherDisplay:10.37,2013-08-16 07:24:00,
2013-08-16 03:29:00,57.2,53.0,30.36,SSW,200,3.5,3.5,86,0.00,SCT,,0.00,WeatherDisplay:10.37,2013-08-16 07:29:00,
2013-08-16 03:34:00,57.0,52.9,30.36,SSW,200,3.5,3.5,86,0.00,SCT,,0.00,WeatherDisplay:10.37,2013-08-16 07:34:00,
2013-08-16 03:39:00,57.0,52.9,30.36,SSW,200,3.5,3.5,86,0.00,SCT,,0.00,WeatherDisplay:10.37,2013-08-16 07:39:00,
2013-08-16 03:44:00,56.8,52.7,30.36,SSW,200,3.5,3.5,86,0.00,SCT,,0.00,WeatherDisplay:10.37,2013-08-16 07:44:00,
2013-08-16 03:49:00,56.8,52.7,30.33,SSW,200,3.5,3.5,86,0.00,SCT,,0.00,WeatherDisplay:10.37,2013-08-16 07:49:00,
2013-08-16 03:54:00,56.8,52.7,30.33,SSW,200,3.5,3.5,86,0.00,SCT,,0.00,WeatherDisplay:10.37,2013-08-16 07:54:00,
2013-08-16 03:59:00,56.7,52.5,30.33,SSW,200,3.5,3.5,86,0.00,SCT,,0.00,WeatherDisplay:10.37,2013-08-16 07:59:00,
2013-08-16 04:04:00,56.5,53.3,30.33,SSW,200,0.0,0.0,89,0.00,FEW,,0.00,WeatherDisplay:10.37,2013-08-16 08:04:00,
2013-08-16 04:09:00,56.8,53.6,30.33,SSW,200,0.0,0.0,89,0.00,FEW,,0.00,WeatherDisplay:10.37,2013-08-16 08:09:00,
2013-08-16 04:14:00,56.5,53.3,30.33,SSW,200,0.0,0.0,89,0.00,FEW,,0.00,WeatherDisplay:10.37,2013-08-16 08:14:00,
2013-08-16 04:19:00,56.5,53.3,30.33,SSW,200,0.0,0.0,89,0.00,FEW,,0.00,WeatherDisplay:10.37,2013-08-16 08:19:00,
2013-08-16 04:24:00,56.3,53.1,30.33,SSW,200,0.0,0.0,89,0.00,FEW,,0.00,WeatherDisplay:10.37,2013-08-16 08:24:00,
2013-08-16 04:29:00,56.3,53.1,30.33,SSW,200,0.0,0.0,89,0.00,FEW,,0.00,WeatherDisplay:10.37,2013-08-16 08:29:00,
2013-08-16 04:34:00,56.3,53.1,30.33,SSW,200,0.0,0.0,89,0.00,FEW,,0.00,WeatherDisplay:10.37,2013-08-16 08:34:00,
2013-08-16 04:39:00,56.3,53.1,30.33,SSW,200,0.0,0.0,89,0.00,FEW,,0.00,WeatherDisplay:10.37,2013-08-16 08:39:00,
2013-08-16 04:44:00,56.1,52.9,30.33,SSW,200,0.0,0.0,89,0.00,FEW,,0.00,WeatherDisplay:10.37,2013-08-16 08:44:00,
2013-08-16 04:49:00,56.3,53.1,30.33,SSW,200,0.0,0.0,89,0.00,FEW,,0.00,WeatherDisplay:10.37,2013-08-16 08:49:00,
2013-08-16 04:54:00,56.1,52.9,30.33,SSW,200,0.0,0.0,89,0.00,FEW,,0.00,WeatherDisplay:10.37,2013-08-16 08:54:00,
2013-08-16 04:59:00,56.1,52.9,30.33,SSW,200,0.0,0.0,89,0.00,FEW,,0.00,WeatherDisplay:10.37,2013-08-16 08:59:00,
2013-08-16 05:04:00,55.9,53.6,30.33,SSW,200,0.0,0.0,92,0.00,SCT,,0.00,WeatherDisplay:10.37,2013-08-16 09:04:00,
2013-08-16 05:09:00,55.9,53.6,30.33,SSW,200,0.0,0.0,92,0.00,SCT,,0.00,WeatherDisplay:10.37,2013-08-16 09:09:00,
2013-08-16 05:14:00,55.8,53.5,30.33,SSW,200,0.0,0.0,92,0.00,SCT,,0.00,WeatherDisplay:10.37,2013-08-16 09:14:00,
2013-08-16 05:19:00,55.9,53.6,30.36,SSW,200,0.0,0.0,92,0.00,SCT,,0.00,WeatherDisplay:10.37,2013-08-16 09:19:00,
2013-08-16 05:24:00,55.8,53.5,30.36,SSW,200,0.0,0.0,92,0.00,SCT,,0.00,WeatherDisplay:10.37,2013-08-16 09:24:00,
2013-08-16 05:29:00,55.8,53.5,30.36,SSW,200,0.0,0.0,92,0.00,SCT,,0.00,WeatherDisplay:10.37,2013-08-16 09:29:00,
2013-08-16 05:34:00,56.1,53.8,30.36,SSW,200,0.0,0.0,92,0.00,SCT,,0.00,WeatherDisplay:10.37,2013-08-16 09:34:00,
2013-08-16 05:39:00,56.5,54.2,30.36,SSW,200,0.0,0.0,92,0.00,SCT,,0.00,WeatherDisplay:10.37,2013-08-16 09:39:00,
2013-08-16 05:45:00,56.5,54.2,30.36,SSW,200,0.0,0.0,92,0.00,SCT,,0.00,WeatherDisplay:10.37,2013-08-16 09:45:00,
2013-08-16 05:50:00,56.3,54.0,30.36,SSW,200,0.0,0.0,92,0.00,SCT,,0.00,WeatherDisplay:10.37,2013-08-16 09:50:00,
2013-08-16 05:55:00,56.1,53.8,30.36,SSW,200,0.0,0.0,92,0.00,SCT,,0.00,WeatherDisplay:10.37,2013-08-16 09:55:00,
2013-08-16 06:00:00,55.9,53.6,30.33,SSW,200,0.0,0.0,92,0.00,SCT,,0.00,WeatherDisplay:10.37,2013-08-16 10:00:00,
2013-08-16 06:05:00,55.9,52.7,30.33,SSW,200,0.0,0.0,89,0.00,BKN,,0.00,WeatherDisplay:10.37,2013-08-16 10:05:00,
2013-08-16 06:10:00,55.9,52.7,30.33,SSW,200,0.0,0.0,89,0.00,BKN,,0.00,WeatherDisplay:10.37,2013-08-16 10:10:00,
2013-08-16 06:15:00,55.9,52.7,30.33,SSW,200,0.0,0.0,89,0.00,BKN,,0.00,WeatherDisplay:10.37,2013-08-16 10:15:00,
2013-08-16 06:20:00,55.8,52.6,30.33,SSW,200,0.0,0.0,89,0.00,BKN,,0.00,WeatherDisplay:10.37,2013-08-16 10:20:00,
2013-08-16 06:25:00,55.8,52.6,30.36,SSW,200,0.0,0.0,89,0.00,BKN,,0.00,WeatherDisplay:10.37,2013-08-16 10:25:00,
2013-08-16 06:30:00,55.9,52.7,30.36,SSW,200,0.0,0.0,89,0.00,BKN,,0.00,WeatherDisplay:10.37,2013-08-16 10:30:00,
2013-08-16 06:35:00,56.5,53.3,30.36,SSW,200,0.0,0.0,89,0.00,BKN,,0.00,WeatherDisplay:10.37,2013-08-16 10:35:00,
2013-08-16 06:40:00,56.5,53.3,30.36,SSW,200,0.0,0.0,89,0.00,BKN,,0.00,WeatherDisplay:10.37,2013-08-16 10:40:00,
2013-08-16 06:45:00,56.5,53.3,30.36,SSW,200,0.0,0.0,89,0.00,BKN,,0.00,WeatherDisplay:10.37,2013-08-16 10:45:00,
2013-08-16 06:50:00,55.9,52.7,30.36,SSW,200,0.0,0.0,89,0.00,BKN,,0.00,WeatherDisplay:10.37,2013-08-16 10:50:00,
2013-08-16 06:55:00,55.9,52.7,30.36,SSW,200,0.0,0.0,89,0.00,BKN,,0.00,WeatherDisplay:10.37,2013-08-16 10:55:00,
2013-08-16 07:00:00,55.9,52.7,30.36,SSW,200,0.0,0.0,89,0.00,BKN,,0.00,WeatherDisplay:10.37,2013-08-16 11:00:00,
2013-08-16 07:05:00,55.9,52.7,30.36,ESE,117,0.0,0.0,89,0.00,BKN,,0.00,WeatherDisplay:10.37,2013-08-16 11:05:00,
2013-08-16 07:10:00,55.8,52.6,30.36,ESE,117,0.0,0.0,89,0.00,BKN,,0.00,WeatherDisplay:10.37,2013-08-16 11:10:00,
2013-08-16 07:15:00,55.9,52.7,30.36,ESE,117,0.0,0.0,89,0.00,BKN,,0.00,WeatherDisplay:10.37,2013-08-16 11:15:00,
2013-08-16 07:20:00,55.9,52.7,30.36,ESE,117,0.0,0.0,89,0.00,BKN,,0.00,WeatherDisplay:10.37,2013-08-16 11:20:00,
2013-08-16 07:25:00,56.1,52.9,30.36,ESE,117,0.0,0.0,89,0.00,BKN,,0.00,WeatherDisplay:10.37,2013-08-16 11:25:00,
2013-08-16 07:30:00,56.1,52.9,30.36,ESE,117,0.0,0.0,89,0.00,BKN,,0.00,WeatherDisplay:10.37,2013-08-16 11:30:00,
2013-08-16 07:35:00,56.1,52.9,30.39,ESE,117,0.0,0.0,89,0.00,BKN,,0.00,WeatherDisplay:10.37,2013-08-16 11:35:00,
2013-08-16 07:40:00,56.3,53.1,30.39,ESE,117,0.0,0.0,89,0.00,BKN,,0.00,WeatherDisplay:10.37,2013-08-16 11:40:00,
2013-08-16 07:45:00,56.7,53.5,30.39,ESE,117,0.0,0.0,89,0.00,BKN,,0.00,WeatherDisplay:10.37,2013-08-16 11:45:00,
2013-08-16 07:50:00,56.7,53.5,30.39,ESE,117,0.0,0.0,89,0.00,BKN,,0.00,WeatherDisplay:10.37,2013-08-16 11:50:00,
2013-08-16 07:55:00,56.5,53.3,30.39,ESE,117,0.0,0.0,89,0.00,BKN,,0.00,WeatherDisplay:10.37,2013-08-16 11:55:00,
2013-08-16 08:00:00,56.8,53.6,30.39,ESE,117,0.0,0.0,89,0.00,BKN,,0.00,WeatherDisplay:10.37,2013-08-16 12:00:00,
2013-08-16 08:05:00,56.8,52.7,30.39,SSW,200,3.5,3.5,86,0.00,BKN,,0.00,WeatherDisplay:10.37,2013-08-16 12:05:00,
2013-08-16 08:10:00,56.8,52.7,30.39,SSW,200,3.5,3.5,86,0.00,BKN,,0.00,WeatherDisplay:10.37,2013-08-16 12:10:00,
2013-08-16 08:15:00,56.7,52.5,30.39,SSW,200,3.5,3.5,86,0.00,BKN,,0.00,WeatherDisplay:10.37,2013-08-16 12:15:00,
2013-08-16 08:20:00,56.7,52.5,30.39,SSW,200,3.5,3.5,86,0.00,BKN,,0.00,WeatherDisplay:10.37,2013-08-16 12:20:00,
2013-08-16 08:25:00,57.2,53.0,30.39,SSW,200,3.5,3.5,86,0.00,BKN,,0.00,WeatherDisplay:10.37,2013-08-16 12:25:00,
2013-08-16 08:30:00,57.0,52.9,30.39,SSW,200,3.5,3.5,86,0.00,BKN,,0.00,WeatherDisplay:10.37,2013-08-16 12:30:00,
2013-08-16 08:35:00,57.4,53.2,30.39,SSW,200,3.5,3.5,86,0.00,BKN,,0.00,WeatherDisplay:10.37,2013-08-16 12:35:00,
2013-08-16 08:40:00,57.6,53.4,30.39,SSW,200,3.5,3.5,86,0.00,BKN,,0.00,WeatherDisplay:10.37,2013-08-16 12:40:00,
2013-08-16 08:45:00,57.6,53.4,30.39,SSW,200,3.5,3.5,86,0.00,BKN,,0.00,WeatherDisplay:10.37,2013-08-16 12:45:00,
2013-08-16 08:50:00,57.6,53.4,30.39,SSW,200,3.5,3.5,86,0.00,BKN,,0.00,WeatherDisplay:10.37,2013-08-16 12:50:00,
2013-08-16 08:55:00,57.6,53.4,30.39,SSW,200,3.5,3.5,86,0.00,BKN,,0.00,WeatherDisplay:10.37,2013-08-16 12:55:00,
2013-08-16 09:00:00,57.7,53.6,30.39,SSW,200,3.5,3.5,86,0.00,BKN,,0.00,WeatherDisplay:10.37,2013-08-16 13:00:00,
2013-08-16 09:05:00,57.9,53.8,30.39,SSW,200,3.5,3.5,86,0.00,BKN,,0.00,WeatherDisplay:10.37,2013-08-16 13:05:00,
2013-08-16 09:10:00,57.9,53.8,30.39,SSW,200,3.5,3.5,86,0.00,BKN,,0.00,WeatherDisplay:10.37,2013-08-16 13:10:00,
2013-08-16 09:15:00,58.1,53.9,30.42,SSW,200,3.5,3.5,86,0.00,BKN,,0.00,WeatherDisplay:10.37,2013-08-16 13:15:00,
2013-08-16 09:20:00,58.1,50.9,30.42,SSW,200,0.0,0.0,77,0.00,SCT,,0.00,WeatherDisplay:10.37,2013-08-16 13:20:00,
2013-08-16 09:25:00,58.5,51.3,30.39,SSW,200,0.0,0.0,77,0.00,SCT,,0.00,WeatherDisplay:10.37,2013-08-16 13:25:00,
2013-08-16 09:30:00,58.3,51.1,30.39,SSW,200,0.0,0.0,77,0.00,SCT,,0.00,WeatherDisplay:10.37,2013-08-16 13:30:00,
2013-08-16 09:35:00,58.6,51.4,30.39,SSW,200,0.0,0.0,77,0.00,SCT,,0.00,WeatherDisplay:10.37,2013-08-16 13:35:00,
2013-08-16 09:40:00,58.8,51.6,30.39,SSW,200,0.0,0.0,77,0.00,SCT,,0.00,WeatherDisplay:10.37,2013-08-16 13:40:00,
2013-08-16 09:45:00,59.2,52.0,30.39,SSW,200,0.0,0.0,77,0.00,SCT,,0.00,WeatherDisplay:10.37,2013-08-16 13:45:00,
2013-08-16 09:50:00,59.4,52.1,30.39,SSW,200,0.0,0.0,77,0.00,SCT,,0.00,WeatherDisplay:10.37,2013-08-16 13:50:00,
2013-08-16 09:55:00,59.5,52.3,30.39,SSW,200,0.0,0.0,77,0.00,SCT,,0.00,WeatherDisplay:10.37,2013-08-16 13:55:00,
2013-08-16 10:00:00,59.7,52.5,30.39,SSW,200,0.0,0.0,77,0.00,SCT,,0.00,WeatherDisplay:10.37,2013-08-16 14:00:00,
2013-08-16 10:05:00,60.1,52.8,30.39,SSW,200,0.0,0.0,77,0.00,SCT,,0.00,WeatherDisplay:10.37,2013-08-16 14:05:00,
2013-08-16 10:10:00,60.4,53.2,30.39,SSW,200,0.0,0.0,77,0.00,SCT,,0.00,WeatherDisplay:10.37,2013-08-16 14:10:00,
2013-08-16 10:15:00,60.6,53.4,30.39,SSW,200,0.0,0.0,77,0.00,SCT,,0.00,WeatherDisplay:10.37,2013-08-16 14:15:00,
2013-08-16 10:20:00,61.0,49.9,30.39,SSW,200,0.0,0.0,67,0.00,SCT,,0.00,WeatherDisplay:10.37,2013-08-16 14:20:00,
2013-08-16 10:25:00,61.5,50.5,30.39,SSW,200,0.0,0.0,67,0.00,SCT,,0.00,WeatherDisplay:10.37,2013-08-16 14:25:00,
2013-08-16 10:30:00,61.7,50.6,30.39,SSW,200,0.0,0.0,67,0.00,SCT,,0.00,WeatherDisplay:10.37,2013-08-16 14:30:00,
2013-08-16 10:35:00,62.2,51.1,30.39,SSW,200,0.0,0.0,67,0.00,SCT,,0.00,WeatherDisplay:10.37,2013-08-16 14:35:00,
2013-08-16 10:40:00,62.4,51.3,30.39,SSW,200,0.0,0.0,67,0.00,SCT,,0.00,WeatherDisplay:10.37,2013-08-16 14:40:00,
2013-08-16 10:45:00,62.4,51.3,30.39,SSW,200,0.0,0.0,67,0.00,SCT,,0.00,WeatherDisplay:10.37,2013-08-16 14:45:00,
2013-08-16 10:50:00,62.8,51.7,30.36,SSW,200,0.0,0.0,67,0.00,SCT,,0.00,WeatherDisplay:10.37,2013-08-16 14:50:00,
2013-08-16 10:55:00,63.0,51.8,30.36,SSW,200,0.0,0.0,67,0.00,SCT,,0.00,WeatherDisplay:10.37,2013-08-16 14:55:00,
2013-08-16 11:00:00,63.1,52.0,30.36,SSW,200,0.0,0.0,67,0.00,SCT,,0.00,WeatherDisplay:10.37,2013-08-16 15:00:00,
2013-08-16 11:05:00,63.5,52.3,30.36,SSW,200,0.0,0.0,67,0.00,SCT,,0.00,WeatherDisplay:10.37,2013-08-16 15:05:00,
2013-08-16 11:10:00,64.2,53.0,30.36,SSW,200,0.0,0.0,67,0.00,SCT,,0.00,WeatherDisplay:10.37,2013-08-16 15:10:00,
2013-08-16 11:15:00,64.2,53.0,30.36,SSW,200,0.0,0.0,67,0.00,SCT,,0.00,WeatherDisplay:10.37,2013-08-16 15:15:00,
2013-08-16 11:20:00,64.4,48.4,30.36,WNW,300,5.8,5.8,56,0.00,SCT,,0.00,WeatherDisplay:10.37,2013-08-16 15:20:00,
2013-08-16 11:25:00,64.4,48.4,30.36,WNW,300,5.8,5.8,56,0.00,SCT,,0.00,WeatherDisplay:10.37,2013-08-16 15:25:00,
2013-08-16 11:30:00,64.6,48.5,30.36,WNW,300,5.8,5.8,56,0.00,SCT,,0.00,WeatherDisplay:10.37,2013-08-16 15:30:00,
2013-08-16 11:36:00,64.9,48.9,30.36,WNW,300,5.8,5.8,56,0.00,SCT,,0.00,WeatherDisplay:10.37,2013-08-16 15:36:00,
2013-08-16 11:41:00,65.1,49.0,30.36,WNW,300,5.8,5.8,56,0.00,SCT,,0.00,WeatherDisplay:10.37,2013-08-16 15:41:00,
2013-08-16 11:46:00,65.1,49.0,30.36,WNW,300,5.8,5.8,56,0.00,SCT,,0.00,WeatherDisplay:10.37,2013-08-16 15:46:00,
2013-08-16 11:51:00,65.7,49.5,30.36,WNW,300,5.8,5.8,56,0.00,SCT,,0.00,WeatherDisplay:10.37,2013-08-16 15:51:00,
2013-08-16 12:25:00,65.7,49.5,31.13,WNW,300,5.8,5.8,56,0.00,SCT,,0.00,WeatherDisplay:10.37,2013-08-16 16:25:00,
2013-08-16 12:30:00,65.7,49.5,31.13,WNW,300,5.8,5.8,56,0.00,SCT,,0.00,WeatherDisplay:10.37,2013-08-16 16:30:00,
2013-08-16 12:35:00,65.7,46.0,30.71,WNW,300,0.0,0.0,49,0.00,SCT,,0.00,WeatherDisplay:10.37,2013-08-16 16:35:00,
2013-08-16 12:40:00,65.7,46.0,30.71,WNW,300,0.0,0.0,49,0.00,SCT,,0.00,WeatherDisplay:10.37,2013-08-16 16:40:00,
2013-08-16 12:45:00,65.7,46.0,30.71,WNW,300,0.0,0.0,49,0.00,SCT,,0.00,WeatherDisplay:10.37,2013-08-16 16:45:00,
2013-08-16 12:50:00,65.7,46.0,30.62,WNW,300,0.0,0.0,49,0.00,SCT,,0.00,WeatherDisplay:10.37,2013-08-16 16:50:00,
2013-08-16 12:55:00,65.7,46.0,30.62,WNW,300,0.0,0.0,49,0.00,SCT,,0.00,WeatherDisplay:10.37,2013-08-16 16:55:00,
2013-08-16 13:00:00,65.7,46.0,30.62,WNW,300,0.0,0.0,49,0.00,SCT,,0.00,WeatherDisplay:10.37,2013-08-16 17:00:00,
2013-08-16 13:05:00,65.7,44.9,30.57,WNW,300,6.9,6.9,47,0.00,SCT,,0.00,WeatherDisplay:10.37,2013-08-16 17:05:00,
2013-08-16 13:10:00,65.7,44.9,30.57,WNW,300,6.9,6.9,47,0.00,SCT,,0.00,WeatherDisplay:10.37,2013-08-16 17:10:00,
2013-08-16 13:15:00,65.7,44.9,30.57,WNW,300,6.9,6.9,47,0.00,SCT,,0.00,WeatherDisplay:10.37,2013-08-16 17:15:00,
2013-08-16 13:20:00,65.7,44.9,30.51,WNW,300,6.9,6.9,47,0.00,SCT,,0.00,WeatherDisplay:10.37,2013-08-16 17:20:00,
2013-08-16 13:25:00,65.7,44.9,30.51,WNW,300,6.9,6.9,47,0.00,SCT,,0.00,WeatherDisplay:10.37,2013-08-16 17:25:00,
2013-08-16 13:30:00,65.7,44.9,30.51,WNW,300,6.9,6.9,47,0.00,SCT,,0.00,WeatherDisplay:10.37,2013-08-16 17:30:00,
2013-08-16 13:35:00,65.7,44.9,30.48,WNW,300,6.9,6.9,47,0.00,SCT,,0.00,WeatherDisplay:10.37,2013-08-16 17:35:00,
2013-08-16 13:40:00,72.7,51.3,30.48,WNW,300,6.9,6.9,47,0.00,SCT,,0.00,WeatherDisplay:10.37,2013-08-16 17:40:00,
2013-08-16 13:45:00,72.7,51.3,30.48,WNW,300,6.9,6.9,47,0.00,SCT,,0.00,WeatherDisplay:10.37,2013-08-16 17:45:00,
2013-08-16 13:50:00,72.9,51.4,30.45,WNW,300,6.9,6.9,47,0.00,SCT,,0.00,WeatherDisplay:10.37,2013-08-16 17:50:00,
2013-08-16 13:55:00,73.0,51.6,30.45,WNW,300,6.9,6.9,47,0.00,SCT,,0.00,WeatherDisplay:10.37,2013-08-16 17:55:00,
2013-08-16 14:00:00,72.7,47.6,30.45,WNW,300,6.9,6.9,41,0.00,SCT,,0.00,WeatherDisplay:10.37,2013-08-16 18:00:00,
2013-08-16 14:05:00,72.1,47.1,30.45,WNW,300,6.9,6.9,41,0.00,SCT,,0.00,WeatherDisplay:10.37,2013-08-16 18:05:00,
2013-08-16 14:10:00,72.1,47.1,30.45,WNW,300,6.9,6.9,41,0.00,SCT,,0.00,WeatherDisplay:10.37,2013-08-16 18:10:00,
2013-08-16 14:15:00,72.3,47.3,30.45,WNW,300,6.9,6.9,41,0.00,SCT,,0.00,WeatherDisplay:10.37,2013-08-16 18:15:00,
2013-08-16 14:20:00,72.3,47.3,30.42,WNW,300,6.9,6.9,41,0.00,SCT,,0.00,WeatherDisplay:10.37,2013-08-16 18:20:00,
2013-08-16 14:25:00,72.5,47.5,30.42,WNW,300,6.9,6.9,41,0.00,SCT,,0.00,WeatherDisplay:10.37,2013-08-16 18:25:00,
2013-08-16 14:30:00,72.5,47.5,30.42,WNW,300,6.9,6.9,41,0.00,SCT,,0.00,WeatherDisplay:10.37,2013-08-16 18:30:00,
2013-08-16 14:36:00,72.5,47.5,30.39,WNW,300,6.9,6.9,41,0.00,SCT,,0.00,WeatherDisplay:10.37,2013-08-16 18:36:00,
2013-08-16 14:41:00,72.5,47.5,30.39,WNW,300,6.9,6.9,41,0.00,SCT,,0.00,WeatherDisplay:10.37,2013-08-16 18:41:00,
2013-08-16 14:46:00,72.5,47.5,30.39,WNW,300,6.9,6.9,41,0.00,SCT,,0.00,WeatherDisplay:10.37,2013-08-16 18:46:00,
2013-08-16 14:51:00,72.5,47.5,30.39,WNW,300,6.9,6.9,41,0.00,SCT,,0.00,WeatherDisplay:10.37,2013-08-16 18:51:00,
2013-08-16 14:56:00,73.0,47.9,30.39,WNW,300,6.9,6.9,41,0.00,SCT,,0.00,WeatherDisplay:10.37,2013-08-16 18:56:00,
2013-08-16 15:01:00,73.2,46.1,30.39,WNW,300,6.9,6.9,38,0.00,SCT,,0.00,WeatherDisplay:10.37,2013-08-16 19:01:00,
2013-08-16 15:06:00,73.2,46.1,30.39,WNW,300,6.9,6.9,38,0.00,SCT,,0.00,WeatherDisplay:10.37,2013-08-16 19:06:00,
2013-08-16 15:11:00,73.2,46.1,30.39,WNW,300,6.9,6.9,38,0.00,SCT,,0.00,WeatherDisplay:10.37,2013-08-16 19:11:00,
2013-08-16 15:16:00,73.2,46.1,30.39,WNW,300,6.9,6.9,38,0.00,SCT,,0.00,WeatherDisplay:10.37,2013-08-16 19:16:00,
2013-08-16 15:21:00,73.2,46.1,30.36,WNW,300,6.9,6.9,38,0.00,SCT,,0.00,WeatherDisplay:10.37,2013-08-16 19:21:00,
2013-08-16 15:26:00,73.2,46.1,30.36,WNW,300,6.9,6.9,38,0.00,SCT,,0.00,WeatherDisplay:10.37,2013-08-16 19:26:00,
2013-08-16 15:31:00,73.2,46.1,30.36,WNW,300,6.9,6.9,38,0.00,SCT,,0.00,WeatherDisplay:10.37,2013-08-16 19:31:00,
2013-08-16 15:36:00,73.2,46.1,30.36,WNW,300,6.9,6.9,38,0.00,SCT,,0.00,WeatherDisplay:10.37,2013-08-16 19:36:00,
2013-08-16 15:41:00,73.2,46.1,30.36,WNW,300,6.9,6.9,38,0.00,SCT,,0.00,WeatherDisplay:10.37,2013-08-16 19:41:00,
2013-08-16 15:46:00,73.2,46.1,30.36,WNW,300,6.9,6.9,38,0.00,SCT,,0.00,WeatherDisplay:10.37,2013-08-16 19:46:00,
2013-08-16 15:51:00,73.2,46.1,30.33,WNW,300,6.9,6.9,38,0.00,SCT,,0.00,WeatherDisplay:10.37,2013-08-16 19:51:00,
2013-08-16 15:56:00,73.2,46.1,30.33,WNW,300,6.9,6.9,38,0.00,SCT,,0.00,WeatherDisplay:10.37,2013-08-16 19:56:00,
2013-08-16 16:01:00,73.2,46.1,30.33,WNW,300,6.9,6.9,38,0.00,SCT,,0.00,WeatherDisplay:10.37,2013-08-16 20:01:00,
2013-08-16 16:06:00,73.2,46.1,30.33,WNW,300,6.9,6.9,38,0.00,SCT,,0.00,WeatherDisplay:10.37,2013-08-16 20:06:00,
2013-08-16 16:11:00,73.2,46.1,30.33,WNW,300,6.9,6.9,38,0.00,SCT,,0.00,WeatherDisplay:10.37,2013-08-16 20:11:00,
2013-08-16 16:16:00,73.2,46.1,30.33,WNW,300,6.9,6.9,38,0.00,SCT,,0.00,WeatherDisplay:10.37,2013-08-16 20:16:00,
2013-08-16 16:21:00,73.2,46.1,30.33,WNW,300,6.9,6.9,38,0.00,SCT,,0.00,WeatherDisplay:10.37,2013-08-16 20:21:00,
2013-08-16 16:26:00,73.2,46.1,30.33,WNW,300,6.9,6.9,38,0.00,SCT,,0.00,WeatherDisplay:10.37,2013-08-16 20:26:00,
2013-08-16 16:31:00,73.2,46.1,30.33,WNW,300,6.9,6.9,38,0.00,SCT,,0.00,WeatherDisplay:10.37,2013-08-16 20:31:00,
2013-08-16 16:36:00,73.2,46.1,30.33,WNW,300,6.9,6.9,38,0.00,SCT,,0.00,WeatherDisplay:10.37,2013-08-16 20:36:00,
2013-08-16 16:41:00,73.2,46.1,30.33,WNW,300,6.9,6.9,38,0.00,SCT,,0.00,WeatherDisplay:10.37,2013-08-16 20:41:00,
2013-08-16 16:46:00,73.2,46.1,30.33,WNW,300,6.9,6.9,38,0.00,SCT,,0.00,WeatherDisplay:10.37,2013-08-16 20:46:00,
2013-08-16 16:51:00,73.2,46.1,30.33,WNW,300,6.9,6.9,38,0.00,SCT,,0.00,WeatherDisplay:10.37,2013-08-16 20:51:00,
2013-08-16 16:56:00,73.2,46.1,30.33,WNW,300,6.9,6.9,38,0.00,SCT,,0.00,WeatherDisplay:10.37,2013-08-16 20:56:00,
2013-08-16 17:01:00,73.2,46.1,30.33,WNW,300,6.9,6.9,38,0.00,SCT,,0.00,WeatherDisplay:10.37,2013-08-16 21:01:00,
2013-08-16 17:06:00,73.2,46.1,30.33,WNW,300,6.9,6.9,38,0.00,SCT,,0.00,WeatherDisplay:10.37,2013-08-16 21:06:00,
2013-08-16 17:11:00,73.2,46.1,30.33,WNW,300,6.9,6.9,38,0.00,SCT,,0.00,WeatherDisplay:10.37,2013-08-16 21:11:00,
2013-08-16 17:16:00,73.2,48.1,30.33,WNW,300,5.8,6.9,41,0.00,SCT,,0.00,WeatherDisplay:10.37,2013-08-16 21:16:00,
2013-08-16 17:21:00,73.2,48.1,30.33,WNW,300,5.8,5.8,41,0.00,SCT,,0.00,WeatherDisplay:10.37,2013-08-16 21:21:00,
2013-08-16 17:26:00,73.2,48.1,30.33,WNW,300,5.8,5.8,41,0.00,SCT,,0.00,WeatherDisplay:10.37,2013-08-16 21:26:00,
2013-08-16 17:31:00,73.2,48.1,30.33,WNW,300,5.8,5.8,41,0.00,SCT,,0.00,WeatherDisplay:10.37,2013-08-16 21:31:00,
2013-08-16 17:36:00,73.2,48.1,30.33,WNW,300,5.8,5.8,41,0.00,SCT,,0.00,WeatherDisplay:10.37,2013-08-16 21:36:00,
2013-08-16 17:41:00,73.2,48.1,30.33,WNW,300,5.8,5.8,41,0.00,SCT,,0.00,WeatherDisplay:10.37,2013-08-16 21:41:00,
2013-08-16 17:46:00,73.2,48.1,30.33,WNW,300,5.8,5.8,41,0.00,SCT,,0.00,WeatherDisplay:10.37,2013-08-16 21:46:00,
2013-08-16 17:51:00,73.2,48.1,30.33,WNW,300,5.8,5.8,41,0.00,SCT,,0.00,WeatherDisplay:10.37,2013-08-16 21:51:00,
2013-08-16 17:56:00,73.2,48.1,30.33,WNW,300,5.8,5.8,41,0.00,SCT,,0.00,WeatherDisplay:10.37,2013-08-16 21:56:00,
2013-08-16 18:01:00,73.2,48.1,30.33,WNW,300,0.0,5.8,41,0.00,BKN,,0.00,WeatherDisplay:10.37,2013-08-16 22:01:00,
2013-08-16 18:06:00,73.2,48.1,30.33,WNW,300,0.0,0.0,41,0.00,BKN,,0.00,WeatherDisplay:10.37,2013-08-16 22:06:00,
2013-08-16 18:11:00,73.2,48.1,30.33,WNW,300,0.0,0.0,41,0.00,BKN,,0.00,WeatherDisplay:10.37,2013-08-16 22:11:00,
2013-08-16 18:16:00,73.2,48.1,30.33,WNW,300,0.0,0.0,41,0.00,BKN,,0.00,WeatherDisplay:10.37,2013-08-16 22:16:00,
2013-08-16 18:21:00,73.2,48.1,30.33,WNW,300,0.0,0.0,41,0.00,BKN,,0.00,WeatherDisplay:10.37,2013-08-16 22:21:00,
2013-08-16 18:26:00,73.2,48.1,30.33,WNW,300,0.0,0.0,41,0.00,BKN,,0.00,WeatherDisplay:10.37,2013-08-16 22:26:00,
2013-08-16 18:31:00,70.2,45.4,30.33,WNW,300,0.0,0.0,41,0.00,BKN,,0.00,WeatherDisplay:10.37,2013-08-16 22:31:00,
2013-08-16 18:36:00,70.2,45.4,30.33,WNW,300,0.0,0.0,41,0.00,BKN,,0.00,WeatherDisplay:10.37,2013-08-16 22:36:00,
2013-08-16 18:41:00,70.2,45.4,30.33,WNW,300,0.0,0.0,41,0.00,BKN,,0.00,WeatherDisplay:10.37,2013-08-16 22:41:00,
2013-08-16 18:46:00,70.2,45.4,30.33,WNW,300,0.0,0.0,41,0.00,BKN,,0.00,WeatherDisplay:10.37,2013-08-16 22:46:00,
2013-08-16 18:51:00,70.2,45.4,30.33,WNW,300,0.0,0.0,41,0.00,BKN,,0.00,WeatherDisplay:10.37,2013-08-16 22:51:00,
2013-08-16 18:56:00,70.2,45.4,30.33,WNW,300,0.0,0.0,41,0.00,BKN,,0.00,WeatherDisplay:10.37,2013-08-16 22:56:00,
2013-08-16 19:01:00,70.0,47.1,30.33,WNW,300,0.0,0.0,44,0.00,BKN,,0.00,WeatherDisplay:10.37,2013-08-16 23:01:00,
2013-08-16 19:06:00,70.0,47.1,30.33,WNW,300,0.0,0.0,44,0.00,BKN,,0.00,WeatherDisplay:10.37,2013-08-16 23:06:00,
2013-08-16 19:11:00,70.0,47.1,30.33,WNW,300,0.0,0.0,44,0.00,BKN,,0.00,WeatherDisplay:10.37,2013-08-16 23:11:00,
2013-08-16 19:16:00,70.0,47.1,30.33,WNW,300,0.0,0.0,44,0.00,BKN,,0.00,WeatherDisplay:10.37,2013-08-16 23:16:00,
2013-08-16 19:21:00,69.6,46.7,30.33,WNW,300,0.0,0.0,44,0.00,BKN,,0.00,WeatherDisplay:10.37,2013-08-16 23:21:00,
2013-08-16 19:26:00,69.6,46.7,30.33,WNW,300,0.0,0.0,44,0.00,BKN,,0.00,WeatherDisplay:10.37,2013-08-16 23:26:00,
2013-08-16 19:31:00,69.3,46.4,30.33,WNW,300,0.0,0.0,44,0.00,BKN,,0.00,WeatherDisplay:10.37,2013-08-16 23:31:00,
2013-08-16 19:36:00,69.3,46.4,30.33,WNW,300,0.0,0.0,44,0.00,BKN,,0.00,WeatherDisplay:10.37,2013-08-16 23:36:00,
2013-08-16 19:41:00,69.3,46.4,30.33,WNW,300,0.0,0.0,44,0.00,BKN,,0.00,WeatherDisplay:10.37,2013-08-16 23:41:00,
2013-08-16 19:46:00,69.3,46.4,30.33,WNW,300,0.0,0.0,44,0.00,BKN,,0.00,WeatherDisplay:10.37,2013-08-16 23:46:00,
2013-08-16 19:51:00,69.3,46.4,30.36,WNW,300,0.0,0.0,44,0.00,BKN,,0.00,WeatherDisplay:10.37,2013-08-16 23:51:00,
2013-08-16 19:56:00,68.5,45.8,30.36,WNW,300,0.0,0.0,44,0.00,BKN,,0.00,WeatherDisplay:10.37,2013-08-16 23:56:00,
2013-08-16 20:02:00,68.4,53.0,30.36,WSW,240,4.6,4.6,58,0.00,SCT,,0.00,WeatherDisplay:10.37,2013-08-17 00:02:00,
2013-08-16 20:07:00,68.4,53.0,30.36,WSW,240,4.6,4.6,58,0.00,SCT,,0.00,WeatherDisplay:10.37,2013-08-17 00:07:00,
2013-08-16 20:12:00,68.0,52.7,30.36,WSW,240,4.6,4.6,58,0.00,SCT,,0.00,WeatherDisplay:10.37,2013-08-17 00:12:00,
2013-08-16 20:17:00,68.0,52.7,30.36,WSW,240,4.6,4.6,58,0.00,SCT,,0.00,WeatherDisplay:10.37,2013-08-17 00:17:00,
2013-08-16 20:22:00,68.0,52.7,30.36,WSW,240,4.6,4.6,58,0.00,SCT,,0.00,WeatherDisplay:10.37,2013-08-17 00:22:00,
2013-08-16 20:27:00,67.6,52.3,30.36,WSW,240,4.6,4.6,58,0.00,SCT,,0.00,WeatherDisplay:10.37,2013-08-17 00:27:00,
2013-08-16 20:32:00,67.6,52.3,30.36,WSW,240,4.6,4.6,58,0.00,SCT,,0.00,WeatherDisplay:10.37,2013-08-17 00:32:00,
2013-08-16 20:37:00,67.5,52.2,30.36,WSW,240,4.6,4.6,58,0.00,SCT,,0.00,WeatherDisplay:10.37,2013-08-17 00:37:00,
2013-08-16 20:42:00,67.5,52.2,30.36,WSW,240,4.6,4.6,58,0.00,SCT,,0.00,WeatherDisplay:10.37,2013-08-17 00:42:00,
2013-08-16 20:47:00,67.3,52.0,30.36,WSW,240,4.6,4.6,58,0.00,SCT,,0.00,WeatherDisplay:10.37,2013-08-17 00:47:00,
2013-08-16 20:52:00,66.9,51.7,30.39,WSW,240,4.6,4.6,58,0.00,SCT,,0.00,WeatherDisplay:10.37,2013-08-17 00:52:00,
2013-08-16 20:57:00,66.9,51.7,30.39,WSW,240,4.6,4.6,58,0.00,SCT,,0.00,WeatherDisplay:10.37,2013-08-17 00:57:00,
2013-08-16 21:02:00,66.9,57.6,30.39,WSW,240,0.0,4.6,72,0.00,SCT,,0.00,WeatherDisplay:10.37,2013-08-17 01:02:00,
2013-08-16 21:07:00,66.6,57.3,30.39,WSW,240,0.0,0.0,72,0.00,SCT,,0.00,WeatherDisplay:10.37,2013-08-17 01:07:00,
2013-08-16 21:12:00,66.6,57.3,30.39,WSW,240,0.0,0.0,72,0.00,SCT,,0.00,WeatherDisplay:10.37,2013-08-17 01:12:00,
2013-08-16 21:17:00,66.6,57.3,30.39,WSW,240,0.0,0.0,72,0.00,SCT,,0.00,WeatherDisplay:10.37,2013-08-17 01:17:00,
2013-08-16 21:22:00,66.6,57.3,30.42,WSW,240,0.0,0.0,72,0.00,SCT,,0.00,WeatherDisplay:10.37,2013-08-17 01:22:00,
2013-08-16 21:27:00,66.6,57.3,30.42,WSW,240,0.0,0.0,72,0.00,SCT,,0.00,WeatherDisplay:10.37,2013-08-17 01:27:00,
2013-08-16 21:32:00,66.6,57.3,30.42,WSW,240,0.0,0.0,72,0.00,SCT,,0.00,WeatherDisplay:10.37,2013-08-17 01:32:00,
2013-08-16 21:37:00,66.6,57.3,30.42,WSW,240,0.0,0.0,72,0.00,SCT,,0.00,WeatherDisplay:10.37,2013-08-17 01:37:00,
2013-08-16 21:42:00,66.6,57.3,30.42,WSW,240,0.0,0.0,72,0.00,SCT,,0.00,WeatherDisplay:10.37,2013-08-17 01:42:00,
2013-08-16 21:47:00,66.6,57.3,30.42,WSW,240,0.0,0.0,72,0.00,SCT,,0.00,WeatherDisplay:10.37,2013-08-17 01:47:00,
2013-08-16 21:52:00,66.6,57.3,30.42,WSW,240,0.0,0.0,72,0.00,SCT,,0.00,WeatherDisplay:10.37,2013-08-17 01:52:00,
2013-08-16 21:57:00,66.6,57.3,30.42,WSW,240,0.0,0.0,72,0.00,SCT,,0.00,WeatherDisplay:10.37,2013-08-17 01:57:00,
2013-08-16 22:02:00,66.6,60.2,30.42,WSW,240,0.0,0.0,80,0.00,FEW,,0.00,WeatherDisplay:10.37,2013-08-17 02:02:00,
2013-08-16 22:07:00,66.6,60.2,30.42,WSW,240,0.0,0.0,80,0.00,FEW,,0.00,WeatherDisplay:10.37,2013-08-17 02:07:00,
2013-08-16 22:12:00,66.6,60.2,30.42,WSW,240,0.0,0.0,80,0.00,FEW,,0.00,WeatherDisplay:10.37,2013-08-17 02:12:00,
2013-08-16 22:17:00,66.6,60.2,30.42,WSW,240,0.0,0.0,80,0.00,FEW,,0.00,WeatherDisplay:10.37,2013-08-17 02:17:00,
2013-08-16 22:22:00,66.6,60.2,30.45,WSW,240,0.0,0.0,80,0.00,FEW,,0.00,WeatherDisplay:10.37,2013-08-17 02:22:00,
2013-08-16 22:27:00,64.6,58.3,30.45,WSW,240,0.0,0.0,80,0.00,FEW,,0.00,WeatherDisplay:10.37,2013-08-17 02:27:00,
2013-08-16 22:32:00,64.6,58.3,30.45,WSW,240,0.0,0.0,80,0.00,FEW,,0.00,WeatherDisplay:10.37,2013-08-17 02:32:00,
2013-08-16 22:37:00,64.4,58.1,30.45,WSW,240,0.0,0.0,80,0.00,FEW,,0.00,WeatherDisplay:10.37,2013-08-17 02:37:00,
2013-08-16 22:42:00,64.4,58.1,30.45,WSW,240,0.0,0.0,80,0.00,FEW,,0.00,WeatherDisplay:10.37,2013-08-17 02:42:00,
2013-08-16 22:47:00,64.4,58.1,30.45,WSW,240,0.0,0.0,80,0.00,FEW,,0.00,WeatherDisplay:10.37,2013-08-17 02:47:00,
2013-08-16 22:52:00,64.4,58.1,30.48,WSW,240,0.0,0.0,80,0.00,FEW,,0.00,WeatherDisplay:10.37,2013-08-17 02:52:00,
2013-08-16 22:57:00,64.4,58.1,30.48,WSW,240,0.0,0.0,80,0.00,FEW,,0.00,WeatherDisplay:10.37,2013-08-17 02:57:00,
2013-08-16 23:02:00,64.4,59.1,30.48,WSW,240,0.0,0.0,83,0.00,FEW,,0.00,WeatherDisplay:10.37,2013-08-17 03:02:00,
2013-08-16 23:07:00,63.7,58.4,30.48,WSW,240,0.0,0.0,83,0.00,FEW,,0.00,WeatherDisplay:10.37,2013-08-17 03:07:00,
2013-08-16 23:12:00,63.7,58.4,30.48,WSW,240,0.0,0.0,83,0.00,FEW,,0.00,WeatherDisplay:10.37,2013-08-17 03:12:00,
2013-08-16 23:17:00,63.5,58.2,30.48,WSW,240,0.0,0.0,83,0.00,FEW,,0.00,WeatherDisplay:10.37,2013-08-17 03:17:00,
2013-08-16 23:22:00,63.3,58.1,30.48,WSW,240,0.0,0.0,83,0.00,FEW,,0.00,WeatherDisplay:10.37,2013-08-17 03:22:00,
2013-08-16 23:27:00,63.3,58.1,30.48,WSW,240,0.0,0.0,83,0.00,FEW,,0.00,WeatherDisplay:10.37,2013-08-17 03:27:00,
2013-08-16 23:32:00,63.1,57.9,30.48,WSW,240,0.0,0.0,83,0.00,FEW,,0.00,WeatherDisplay:10.37,2013-08-17 03:32:00,
2013-08-16 23:37:00,63.0,57.7,30.48,WSW,240,0.0,0.0,83,0.00,FEW,,0.00,WeatherDisplay:10.37,2013-08-17 03:37:00,
2013-08-16 23:42:00,63.0,57.7,30.48,WSW,240,0.0,0.0,83,0.00,FEW,,0.00,WeatherDisplay:10.37,2013-08-17 03:42:00,
2013-08-16 23:47:00,63.0,57.7,30.48,WSW,240,0.0,0.0,83,0.00,FEW,,0.00,WeatherDisplay:10.37,2013-08-17 03:47:00,
2013-08-16 23:52:00,62.8,57.5,30.45,WSW,240,0.0,0.0,83,0.00,FEW,,0.00,WeatherDisplay:10.37,2013-08-17 03:52:00,
2013-08-16 23:57:00,62.8,57.5,30.45,WSW,240,0.0,0.0,83,0.00,FEW,,0.00,WeatherDisplay:10.37,2013-08-17 03:57:00,